THOR ABLESTAR DEB, 410

Orbit data source: Space-Track

THOR ABLESTAR DEB, 410 is space debris in LEO originally from a launch on Thu, 29 Jun 1961 UTC launched from the Air Force Eastern Test Range (AFETR). Debris objects in space refer to the collection of defunct objects orbiting the Earth. Examples of debris include non-operational satellites, rocket bodies, and fragments generated from explosions, collisions, or faulty payload assembly.

Loading next visibility...
Identifier
410, 1961-015EK
Orbit
LEO
Country
Flag of USUS
Related business
Manufacturer
Unknown
Mission
Spacecraft
Bus & Motor
Unknown
Mass
Unknown
Launch date (UTC)
1961-06-29 (64 years ago)
Launch vehicle
Unknown
Launch site
Air Force Eastern Test Range (AFETR)
Object type
Payload
Rocket body
Debris
Shape & HBR
Unknown shape, 0.2 m
Radar Cross Section
Medium (>0.1 m² and <1 m²)

Expand to show TLE details & history
Last TLE update: 14 hours ago

TLE from 14 hours ago
0 THOR ABLESTAR DEB
1 00410U 61015EK  25310.23076572  .00000079  00000-0  15698-3 0  9999
2 00410  66.6927 212.5637 0013546 182.9568 257.3416 13.76564156229383
Epoch: 2025-11-06T05:32Z
TLE epoch observation values (Epoch: 2025-11-06T05:32:18.158Z)
Latitude
64.9134°
Longitude
150.07052°
Altitude
988.651 km
Speed
7.363 km/s
True Right ascension
18h 35m 21s
True Declination
64° 47' 07"
Sunlit
Object was in daylight at epoch
Visualization orbit readout
Latitude
Unknown
Longitude
Unknown
Altitude
Unknown
Speed
Unknown
Apparent Right ascension
Unknown
Apparent Declination
Unknown
Sunlit
N/A
Visualization observer readout
Local Sidereal Time
15:13:14
Azimuth
Unknown
Elevation
Unknown
Doppler factor
Unknown
Orbital elements
Apogee altitude
984.475 km
Perigee altitude
964.555 km
Semi-major axis
7,352.652 km
Eccentricity
0.00135
Inclination
66.6927°
RAAN
212.5637°
Arg. of periapsis
182.9568°
True anomaly
257.1902°
Mean anomaly
257.3416°
Eccentric anomaly
257.2659°
Mean motion
3.44253 °/min
Orbital period
104.57 mins
BSTAR
0.00015698

Documentation

Showing up to 5 results
|